Вернуться в каталог

NUSAT-51

YVONNE BRILL

АктивенНаукаSSO
NORAD 66740·PAYLOAD·🇦🇷 Argentina

Запущен Nov 28, 2025 с Vandenberg Space Force Base

Loading…

Ближайшие Пролёты (ближайшие 24 часа)

TLE

СвежийSource: Space-Track

Эпоха: Sep 14, 2026, 10:47 UTC

1 66740U 25276CC  26257.44954867  .00004526  00000-0  20626-3 0  9990
2 66740  97.4141 329.7283 0004275  59.6436 300.5223 15.21153440 43992

Отслеживайте NUSAT-51 в реальном времени с AllMySat

Download on the App Store